Home   Weather   Neuruppin   Past weeks

Flag for Germany Past Weather in Neuruppin, Brandenburg, Germany — Yesterday and Last 2 Weeks

39 °F


Feels Like: 39 °F
Forecast: 41 / 52 °F
Wind: 1 mph from North

Location: Berlin-Tegel

Current Time: Oct 26, 2016 at 6:11:34 AM

Latest Report: Oct 26, 2016 at 5:20 AM

Visibility: 0 mi

Pressure: 30.36 "Hg

Humidity: 100%

Dew Point: 39 °F

Location of NeuruppinLocation

Past Weather in Neuruppin — Graph


Neuruppin Temperature Yesterday

Maximum temperature yesterday: 50 °F (at 12:20 PM)
Minimum temperature yesterday: 39 °F (at 11:20 PM)
Average temperature yesterday: 48 °F

High & Low Weather Summary for the Past Weeks

High54 °F (Oct 14, 2:20 PM)100% (Oct 13, 1:50 AM)30.36 "Hg (Oct 13, 1:50 AM)
Low39 °F (Oct 14, 5:50 AM)58% (Oct 14, 2:20 PM)29.86 "Hg (Oct 15, 4:50 AM)
Average47 °F88%30.07 "Hg
* Reported Oct 11 4:20 AM — Oct 26 4:50 AM, Neuruppin, Weather by CustomWeather, © 2016

Note: Actual official high and low records may vary slightly from our data, if they occured in-between our weather recording intervals... More about our weather records


Neuruppin Weather History for the Previous 24 Hours

Scroll right to see more
Time TempWeatherWind HumidityBarometerVisibility
4:50 AM
Wed, Oct 26
39 °FFog.3 mph100%30.36 "Hg0 mi
4:20 AM39 °FFog.3 mph100%30.36 "Hg0 mi
3:50 AM39 °FFog.3 mph100%30.36 "Hg0 mi
3:20 AM39 °FFog.3 mph100%30.33 "Hg0 mi
2:50 AM39 °FFog.3 mph100%30.33 "Hg0 mi
2:20 AM41 °FFog.3 mph100%30.33 "Hg0 mi
1:50 AM41 °FFog.3 mph100%30.33 "Hg0 mi
1:20 AM41 °FFog.2 mph100%30.33 "Hg1 mi
12:50 AM41 °FFog.2 mph100%30.33 "Hg1 mi
12:20 AM39 °FFog.2 mph100%30.30 "Hg1 mi
11:50 PM
Tue, Oct 25
39 °FFog.3 mph100%30.30 "Hg1 mi
11:20 PM39 °FFog.2 mph100%30.30 "Hg1 mi
10:50 PM43 °FFog.2 mph100%30.30 "Hg2 mi
10:20 PM43 °FFog.3 mph93%30.30 "Hg1 mi
9:50 PM43 °FFog.3 mph100%30.30 "Hg3 mi
9:20 PM45 °FFog.3 mph93%30.27 "Hg3 mi
8:50 PM45 °FClear.3 mph93%30.27 "Hg4 mi
8:20 PM45 °FClear.2 mph93%30.27 "Hg4 mi
7:50 PM46 °FClear.5 mph87%30.27 "Hg4 mi
7:20 PM48 °FCool.6 mph87%30.27 "HgN/A
6:50 PM48 °FPartly cloudy.2 mph87%30.24 "HgN/A
6:20 PM50 °FPassing clouds.3 mph88%30.21 "Hg4 mi
5:50 PM48 °FPartly cloudy.3 mph94%30.21 "Hg4 mi
5:20 PM50 °FBroken clouds.3 mph88%30.21 "Hg4 mi
4:50 PM50 °FClear.3 mph88%30.21 "Hg4 mi
4:20 PM50 °FPartly sunny.3 mph88%30.21 "Hg4 mi
3:50 PM50 °FPartly sunny.5 mph88%30.18 "Hg4 mi
3:20 PM50 °FFog.6 mph88%30.18 "Hg3 mi
2:50 PM50 °FFog.3 mph88%30.18 "Hg3 mi
2:20 PM50 °FFog.5 mph88%30.15 "Hg2 mi
1:50 PM50 °FFog.6 mph88%30.15 "Hg2 mi
1:20 PM50 °FFog.5 mph88%30.15 "Hg2 mi
12:50 PM50 °FFog.3 mph88%30.15 "Hg2 mi
12:20 PM50 °FFog.3 mph94%30.15 "Hg2 mi
11:50 AM48 °FFog.5 mph94%30.12 "Hg3 mi
11:20 AM48 °FFog.5 mph94%30.12 "Hg3 mi
10:50 AM48 °FFog.3 mph94%30.12 "Hg3 mi
10:20 AM48 °FDrizzle. Fog.3 mph94%30.12 "Hg2 mi
9:50 AM48 °FDrizzle. Fog.3 mph94%30.09 "Hg3 mi
9:20 AM48 °FDrizzle. Fog.3 mph94%30.09 "Hg2 mi
8:50 AM48 °FDrizzle. Fog.2 mph94%30.09 "Hg2 mi
8:20 AM48 °FLight rain. Fog.3 mph94%30.07 "Hg2 mi
7:50 AM48 °FDrizzle. Fog.5 mph94%30.07 "Hg2 mi
7:20 AM48 °FLight rain. Fog.5 mph94%30.04 "Hg2 mi
6:50 AM48 °FDrizzle. Fog.3 mph94%30.04 "Hg2 mi
6:20 AM48 °FDrizzle. Fog.3 mph94%30.04 "Hg2 mi
Weather by CustomWeather, © 2016

See weather overviewHow to use our weather pages